Morden Cda, Manitoba

8:03 AM CST on February 22, 2017 (GMT -0600)
Morden

Weather History for CXMD - May, 2013

Change the Weather History Date:

Wednesday, May 15, 2013

  Actual Average Record
Temperature  
Mean Temperature 62 °F -  
Max Temperature 76 °F - - ()
Min Temperature 49 °F - - ()
Degree Days  
Heating Degree Days 2    
Growing Degree Days 12 (Base 50)    
Moisture  
Dew Point 38 °F    
Average Humidity 42    
Maximum Humidity 67    
Minimum Humidity 15    
Precipitation  
Precipitation 0.00 in - - ()
Sea Level Pressure  
Sea Level Pressure 29.77 in    
Wind  
Wind Speed 6 mph ()    
Max Wind Speed 13 mph    
Max Gust Speed 20 mph    
Averages and records for this station are not official NWS values.
T = Trace of Precipitation, MM = Missing Value Source: Averaged Metar Reports

Daily Weather History Graph

Daily Weather History Graph

Search for Another Location

Airport or City:

Trip Planner

Search our weather history database for the weather conditions in past years. The results will help you decide how hot, cold, wet, or windy it might be!

Date:

Astronomy

May. 15, 2013 Rise Set
Actual Time 5:49 AM CDT 9:09 PM CDT
Civil Twilight 5:10 AM CDT 9:48 PM CDT
Nautical Twilight 4:19 AM CDT 10:39 PM CDT
Astronomical Twilight 3:13 AM CDT 11:47 PM CDT
Moon 10:31 AM CDT (5/15) 12:52 AM CDT (5/15)
Length of Visible Light 16h 37m
Length of Day
15h 20m
Waxing Crescent, 27% of the Moon is Illuminated
May 15
Waxing Crescent
May 17
First Quarter
May 24
Full
May 31
Last Quarter
Jun 8
New

Hourly Weather History & Observations

Time (CDT) Temp. Dew Point Humidity Pressure Visibility Wind Dir Wind Speed Gust Speed Precip Events Conditions
12:00 AM 53.4 °F 41.4 °F 64% 29.71 in - West 5.8 mph - N/A   Unknown
1:00 AM 53 °F 41 °F 54% 29.73 in - West 5.8 mph - -  
1:00 AM 53.1 °F 41.4 °F 64% 29.73 in - West 5.8 mph - N/A   Unknown
2:00 AM 52.7 °F 41.5 °F 66% 29.73 in - West 6.9 mph - N/A   Unknown
3:00 AM 51.4 °F 40.6 °F 67% 29.73 in - West 6.9 mph - N/A   Unknown
4:00 AM 50.2 °F 39.7 °F 67% 29.74 in - West 5.8 mph - N/A   Unknown
5:00 AM 50.4 °F 39.6 °F 66% 29.75 in - West 6.9 mph - N/A   Unknown
6:00 AM 51.3 °F 38.8 °F 63% 29.76 in - WNW 6.9 mph - N/A   Unknown
7:00 AM 55 °F 39 °F 43% 29.77 in - West 6.9 mph - -  
7:00 AM 55.4 °F 38.7 °F 53% 29.77 in - West 6.9 mph - N/A   Unknown
8:00 AM 59.4 °F 38.8 °F 47% 29.78 in - NNW 8.1 mph - N/A   Unknown
9:00 AM 65.3 °F 35.8 °F 34% 29.78 in - NNW 10.4 mph - N/A   Unknown
10:00 AM 65.5 °F 37.2 °F 35% 29.79 in - North 2.3 mph - N/A   Unknown
11:00 AM 63.5 °F 41.9 °F 45% 29.80 in - ENE 4.6 mph - N/A   Unknown
12:00 PM 68.0 °F 41.2 °F 38% 29.79 in - East 4.6 mph - N/A   Unknown
1:00 PM 74 °F 37 °F 16% 29.77 in - West 12.7 mph - -  
1:00 PM 74.3 °F 37.2 °F 26% 29.77 in - West 12.7 mph 18.4 mph N/A   Unknown
2:00 PM 72.7 °F 35.8 °F 26% 29.77 in - NNE 9.2 mph - N/A   Unknown
3:00 PM 73.4 °F 37.6 °F 27% 29.77 in - NNE 5.8 mph - N/A   Unknown
4:00 PM 73.4 °F 36.5 °F 26% 29.77 in - NE 6.9 mph - N/A   Unknown
5:00 PM 73.6 °F 34.0 °F 23% 29.77 in - ENE 9.2 mph - N/A   Unknown
6:00 PM 73.0 °F 33.8 °F 24% 29.77 in - North 8.1 mph - N/A   Unknown
7:00 PM 72 °F 34 °F 15% 29.78 in - ENE 12.7 mph - -  
7:00 PM 72.5 °F 34.2 °F 25% 29.78 in - ENE 12.7 mph 19.6 mph N/A   Unknown
8:00 PM 70.2 °F 34.5 °F 27% 29.78 in - East 9.2 mph - N/A   Unknown
9:00 PM 65.3 °F 35.8 °F 34% 29.81 in - East 9.2 mph - N/A   Unknown
10:00 PM 57.6 °F 36.0 °F 44% 29.84 in - East 5.8 mph - N/A   Unknown
11:00 PM 56.7 °F 36.3 °F 47% 29.86 in - South 2.3 mph - N/A   Unknown